Volver al catálogo

STARLINK-33799

ActivoComunicacionesVLEO
NORAD 63447·PAYLOAD·🇺🇸 United States

Lanzado Apr 4, 2025 desde Vandenberg Space Force Base

Loading…

Próximos Pases (próximas 24 horas)

TLE

ActualizadoSource: CelesTrak SupGP

Época: Sep 15, 2026, 02:42 UTC

1 63447C 25069Q   26258.11298611  .00064675  00000+0  19103-2 0  2589
2 63447  53.1591 341.0121 0001071  88.8658 104.3975 15.34367586    12

Sigue STARLINK-33799 en tiempo real con AllMySat

Download on the App Store